Location: Cazavet
(43.0017°N, 1.0431°E)
Time: 22:26:56
(UTC+00:00)

Cosmos 1833 Rocket - Pass Details

Date: 18 January 2026
Orbit: 832 x 838 km, 71.0° (Epoch: 13 February)

Event Time Altitude Azimuth Distance (km) Brightness Sun altitude
Exits shadow 04:22:04 29° 153° (SSE) 1,482 4.1 -32.7°
Drops below altitude 10° 04:24:42 10° 155° (SSE) 2,436 5.3 -32.2°
Sets 04:27:07 0° 156° (SSE) 3,365 6.1 -31.7°
